Probability
26 19 23 26 19 13 16 13 6 3 3 3 6 6 3 6 6 6 6 3 0 0 0 0 0 0 0 0 0 0 3 0 0 0 0 0 0 0
26 26 26 16 23 16 19 23 13 13 3 10 10 6 3 3 3 6 6 3 0 0 0 0 0 0 0 0 0 0 0 0 0 0 0 0 0 0
13 13 16 16 19 16 16 13 13 16 13 6 10 6 6 6 6 6 6 6 3 0 0 0 0 0 0 0 0 0 0 0 0 0 0 0 0 0
16 13 10 13 19 16 19 16 19 16 10 13 10 6 10 6 6 6 6 3 3 0 0 0 0 0 0 0 0 0 0 0 0 0 0 0 0 0
19 13 10 13 16 13 13 13 16 13 13 13 13 6 3 3 3 6 3 3 3 0 0 0 0 0 0 0 0 0 0 0 0 0 0 0 0 0
13 10 6 6 10 10 10 13 10 13 13 10 10 10 6 3 3 3 10 6 3 3 0 0 0 0 0 0 0 0 0 0 0 0 0 0 0 0
10 10 3 3 3 3 3 6 13 6 10 6 3 0 0 3 3 3 3 6 6 3 3 3 3 3 0 0 0 0 0 0 0 0 0 0 0 0
10 10 10 3 0 0 0 0 0 0 6 6 0 0 0 0 0 0 0 0 0 3 3 3 3 3 3 3 0 0 0 0 0 0 0 0 0 0
10 10 6 6 0 0 0 0 0 0 0 3 3 0 0 3 0 0 0 3 0 0 0 0 3 3 3 0 0 0 0 0 0 0 0 0 0 0
3 10 10 6 3 0 0 0 0 0 0 0 3 3 0 0 3 3 0 0 0 0 0 0 0 0 3 3 0 0 0 0 0 0 0 0 0 0
6 3 3 6 3 0 0 0 0 0 0 0 0 0 0 0 0 0 0 0 0 0 0 3 0 0 3 3 3 0 0 0 0 0 0 0 0 0
6 3 0 0 3 0 0 0 0 3 0 0 0 0 0 0 0 0 0 0 0 0 0 0 0 0 0 3 3 3 0 0 0 0 0 0 0 0
3 0 0 0 0 0 0 0 0 0 0 0 0 0 0 0 0 0 0 0 0 0 0 0 0 0 0 0 3 3 0 0 0 0 0 0 0 0
3 0 0 0 0 0 0 0 0 0 0 0 0 0 0 0 0 0 0 0 0 0 0 0 0 0 0 0 0 0 0 0 0 0 0 0 0 0
3 0 0 0 0 0 0 0 0 0 0 0 0 0 0 0 0 0 0 0 0 0 0 0 0 0 0 0 0 0 0 0 0 0 0 0 0 0
0 0 0 0 0 0 0 0 0 0 0 0 0 0 0 0 0 0 0 0 0 0 0 0 0 0 0 0 0 0 0 0 0 0 0 0 0 0
0 3 3 0 0 0 0 0 0 0 0 0 0 0 0 0 0 0 0 0 0 0 0 3 0 0 0 0 0 0 0 0 0 0 0 0 0 0
0 3 3 3 3 3 0 0 0 0 0 0 0 0 0 0 0 0 0 0 0 3 3 3 3 0 0 0 0 0 0 0 0 0 0 0 0 0
0 3 3 3 3 3 3 0 0 0 0 0 0 0 0 0 0 0 0 3 6 6 3 3 3 0 0 0 3 0 0 0 0 0 0 0 0 0
0 0 0 3 3 3 0 3 3 3 3 3 3 3 3 3 0 0 6 6 3 3 3 0 0 0 0 0 0 0 0 0 0 0 0 0 0 0
0 0 0 3 3 3 3 3 3 6 6 6 3 6 3 3 6 3 3 3 0 0 0 0 3 0 3 0 0 0 0 0 0 0 0 0 0 0
3 0 3 3 6 3 6 6 3 3 6 6 3 6 6 6 3 6 3 0 3 0 0 0 3 0 3 0 0 0 0 0 0 0 0 0 0 0
3 10 10 10 10 6 6 6 6 6 3 6 6 6 3 3 0 3 3 3 0 0 0 0 0 0 0 0 0 0 0 0 0 0 0 0 0 0
Height
5879 5877 5875 5873 5871 5869 5867 5866 5864 5862 5860 5858 5857 5855 5853 5851 5849 5848 5846 5845 5843 5842 5841 5840 5838 5837 5836 5835 5834 5832 5831 5830 5829 5827 5826 5825 5824 5822
5877 5875 5873 5870 5868 5866 5864 5862 5861 5859 5857 5855 5853 5851 5849 5848 5846 5844 5842 5841 5840 5838 5837 5836 5835 5834 5832 5831 5829 5828 5827 5825 5824 5823 5821 5820 5818 5816
5875 5872 5870 5867 5865 5863 5861 5859 5857 5855 5853 5851 5849 5847 5845 5844 5842 5840 5838 5837 5836 5834 5833 5832 5831 5829 5828 5826 5825 5823 5822 5821 5819 5817 5816 5814 5812 5810
5872 5869 5867 5864 5862 5860 5858 5855 5853 5851 5849 5847 5845 5843 5841 5839 5838 5836 5834 5833 5831 5830 5829 5828 5826 5825 5823 5821 5820 5819 5817 5815 5814 5812 5810 5808 5806 5803
5869 5866 5864 5861 5859 5856 5854 5852 5849 5847 5845 5843 5841 5838 5836 5835 5833 5832 5830 5828 5827 5825 5824 5823 5821 5820 5818 5817 5815 5813 5811 5809 5808 5806 5803 5801 5799 5796
5866 5863 5861 5858 5856 5853 5851 5848 5845 5843 5841 5838 5836 5834 5832 5830 5828 5827 5825 5823 5822 5820 5819 5817 5816 5814 5813 5811 5809 5807 5805 5803 5801 5799 5796 5794 5792 5789
5862 5860 5857 5854 5852 5850 5847 5845 5842 5839 5836 5834 5832 5830 5828 5826 5824 5822 5820 5818 5816 5815 5813 5811 5810 5808 5806 5804 5802 5800 5799 5796 5794 5792 5789 5787 5784 5781
5859 5856 5853 5850 5848 5846 5843 5841 5838 5835 5832 5830 5827 5825 5823 5821 5819 5817 5815 5813 5811 5810 5807 5805 5803 5801 5799 5798 5796 5794 5791 5789 5787 5784 5782 5779 5776 5773
5855 5852 5849 5847 5844 5842 5839 5837 5834 5831 5828 5826 5823 5820 5818 5816 5814 5811 5809 5807 5805 5803 5801 5799 5797 5795 5793 5791 5789 5786 5784 5782 5779 5776 5774 5771 5768 5765
5851 5849 5846 5843 5840 5837 5835 5832 5829 5826 5824 5821 5818 5815 5813 5810 5808 5806 5804 5801 5799 5797 5795 5793 5790 5788 5786 5783 5781 5778 5776 5774 5771 5768 5765 5763 5759 5756
5847 5844 5841 5838 5835 5832 5830 5827 5824 5821 5818 5815 5813 5810 5807 5805 5802 5800 5797 5795 5793 5791 5788 5785 5783 5780 5778 5775 5773 5770 5768 5765 5763 5760 5757 5754 5751 5747
5842 5839 5836 5833 5830 5827 5824 5821 5818 5815 5812 5810 5807 5804 5801 5798 5795 5793 5790 5788 5785 5783 5780 5778 5775 5772 5770 5767 5764 5762 5759 5757 5754 5751 5748 5745 5742 5739
5836 5833 5830 5827 5824 5821 5818 5815 5812 5809 5806 5803 5800 5797 5795 5792 5789 5786 5783 5780 5777 5775 5772 5770 5767 5764 5762 5759 5756 5753 5750 5748 5745 5742 5739 5736 5733 5729
5830 5827 5824 5820 5817 5814 5812 5809 5805 5802 5799 5796 5793 5790 5788 5785 5782 5778 5775 5772 5769 5767 5763 5761 5758 5756 5753 5751 5748 5745 5742 5739 5736 5733 5730 5727 5724 5721
5823 5820 5817 5814 5811 5808 5804 5801 5798 5795 5792 5789 5786 5783 5780 5777 5774 5771 5768 5765 5761 5758 5755 5752 5750 5747 5744 5742 5739 5736 5733 5730 5727 5724 5721 5718 5715 5712
5816 5813 5810 5807 5804 5800 5797 5794 5791 5788 5785 5782 5779 5776 5772 5769 5766 5763 5759 5756 5753 5749 5746 5743 5741 5738 5736 5733 5730 5727 5725 5722 5718 5715 5712 5709 5705 5702
5809 5806 5803 5800 5797 5793 5790 5786 5783 5780 5777 5774 5771 5768 5765 5761 5758 5754 5751 5747 5744 5741 5737 5734 5731 5729 5726 5724 5721 5718 5715 5712 5709 5706 5703 5699 5696 5693
5801 5799 5796 5792 5789 5785 5782 5779 5776 5773 5770 5766 5763 5760 5757 5753 5749 5746 5742 5739 5735 5732 5728 5725 5722 5719 5717 5714 5712 5709 5706 5703 5700 5697 5694 5690 5687 5684
5793 5790 5788 5784 5781 5778 5774 5771 5768 5765 5761 5758 5755 5752 5748 5745 5741 5738 5734 5730 5727 5723 5719 5716 5713 5710 5707 5705 5702 5700 5697 5693 5690 5688 5684 5681 5678 5675
5785 5782 5779 5776 5773 5769 5766 5763 5760 5757 5753 5750 5746 5743 5739 5736 5732 5729 5725 5721 5718 5714 5710 5707 5704 5701 5698 5695 5692 5690 5687 5684 5681 5678 5675 5672 5669 5666
5776 5773 5770 5767 5763 5761 5757 5754 5751 5748 5745 5741 5738 5734 5730 5726 5723 5719 5716 5713 5709 5705 5702 5698 5695 5692 5688 5685 5683 5680 5677 5675 5672 5669 5666 5663 5660 5657
5767 5764 5761 5757 5754 5751 5748 5745 5742 5739 5736 5732 5729 5725 5721 5717 5714 5710 5707 5703 5699 5696 5692 5688 5685 5682 5679 5676 5673 5670 5667 5665 5662 5659 5657 5654 5651 5647
5756 5753 5751 5748 5745 5742 5738 5736 5733 5729 5726 5723 5719 5716 5712 5708 5705 5701 5698 5694 5690 5686 5682 5679 5675 5672 5669 5666 5663 5660 5657 5655 5652 5649 5647 5644 5641 5639
Wind_Speed
12 12 12 13 12 12 13 13 13 13 14 15 15 15 15 15 15 15 15 15 15 15 15 15 15 15 16 16 16 17 17 18 18 19 19 20 21 22
13 14 14 13 13 13 13 14 14 15 15 16 16 16 16 16 16 16 16 16 15 15 16 15 15 16 16 16 16 16 17 18 19 20 21 22 23 23
14 15 15 14 14 14 14 15 15 16 16 17 17 17 17 17 16 16 16 16 16 16 16 17 17 17 17 17 17 18 19 20 20 21 22 23 24 24
15 16 15 15 15 16 16 16 16 16 16 17 17 17 17 17 17 17 17 17 17 17 18 18 18 18 18 19 19 19 20 20 21 22 22 23 24 25
16 15 15 16 16 16 17 17 17 17 17 17 17 17 17 17 16 17 17 18 19 18 18 18 18 19 19 20 20 20 21 21 22 23 24 25 26 26
16 16 17 17 17 17 17 17 18 17 17 18 17 17 17 17 17 18 18 19 19 19 19 19 20 20 21 21 22 22 22 23 24 25 26 26 27 27
18 18 18 18 17 17 17 18 18 18 18 18 18 17 17 18 18 19 19 19 19 19 20 21 21 22 22 22 23 23 24 25 26 26 27 27 27 28
19 19 19 18 18 18 18 18 18 19 19 18 18 18 18 18 19 19 20 20 20 20 21 22 23 23 23 23 24 24 25 26 26 27 27 28 28 28
20 20 19 18 19 19 18 19 19 19 19 19 19 19 19 19 19 20 20 20 21 21 22 23 23 23 24 25 25 26 26 26 27 27 28 29 29 29
20 20 20 20 20 19 20 20 21 21 20 20 20 20 20 20 20 21 21 22 23 23 24 24 25 26 26 26 27 27 27 28 28 28 29 29 30 30
21 21 21 21 21 21 21 22 22 22 21 21 22 22 22 22 22 23 23 24 24 24 25 26 27 27 27 28 28 28 28 29 29 30 30 31 31 31
23 23 23 23 22 23 23 23 23 23 23 23 23 23 23 24 24 25 25 25 26 26 27 27 28 28 28 29 29 29 29 30 30 31 31 31 31 31
25 25 26 25 25 25 24 25 25 24 24 24 24 24 24 24 25 25 25 26 27 28 28 28 29 29 29 29 30 30 30 30 31 31 31 32 32 32
26 26 27 26 26 26 26 26 26 26 26 25 25 25 25 25 25 25 26 27 28 29 29 29 29 29 30 30 31 31 31 31 31 31 32 32 32 32
27 27 27 27 27 27 27 27 27 26 26 26 26 26 26 26 26 26 27 27 28 29 29 30 30 29 30 31 31 32 32 32 32 32 33 33 33 32
28 27 27 27 27 28 28 28 27 26 26 27 27 27 27 27 27 28 28 28 29 29 29 30 30 30 31 31 31 32 32 33 33 33 34 34 34 33
29 28 27 28 28 29 29 28 27 27 27 28 28 28 28 28 29 29 29 29 29 29 29 30 30 30 30 31 32 33 33 33 33 34 34 34 33 32
29 29 28 28 29 29 29 29 28 27 28 28 28 29 29 30 30 30 30 30 30 30 30 30 30 31 31 31 31 32 33 34 33 33 33 33 33 32
31 30 30 30 30 29 29 29 29 29 29 29 29 30 31 31 31 31 32 32 32 31 31 30 30 31 31 31 31 31 33 33 33 33 32 32 32 32
32 31 31 32 31 31 31 30 31 30 30 30 31 31 32 32 33 33 33 33 33 33 32 31 32 32 32 32 32 31 31 32 33 32 32 31 31 31
32 32 32 33 32 32 32 31 32 32 31 31 31 32 32 32 33 33 33 33 34 34 33 32 33 33 33 33 33 32 31 31 31 32 32 32 32 31
34 34 34 34 33 33 33 33 33 32 32 32 32 33 33 33 32 33 33 34 34 34 34 34 34 34 33 33 32 32 32 32 32 32 32 32 32 32
36 36 35 35 34 35 34 34 33 32 32 33 33 33 33 33 33 33 34 34 34 35 34 34 34 33 33 33 32 32 32 32 32 32 33 32 32 32
Wind_Direction
328 325 324 322 319 318 313 309 305 302 302 301 301 301 300 299 299 299 297 296 293 293 292 292 294 294 293 290 289 287 287 287 288 288 287 288 288 288
322 321 319 316 314 314 313 310 305 303 302 300 300 299 298 297 298 298 297 296 293 293 292 292 293 294 294 293 293 292 292 289 288 289 288 288 288 289
318 316 314 312 312 311 311 307 305 303 301 300 299 299 298 296 295 296 297 295 292 291 291 291 293 294 297 296 294 292 291 290 289 290 289 289 289 290
318 316 316 316 315 312 311 308 307 305 303 302 301 299 297 297 296 293 293 293 292 291 291 291 292 293 295 295 294 294 293 291 291 291 292 292 292 293
319 320 321 319 316 314 314 312 310 308 305 305 303 300 297 296 296 295 294 294 293 292 291 291 293 294 295 294 294 295 294 293 293 293 293 293 294 294
322 320 318 317 317 316 314 314 313 312 308 303 301 299 298 296 296 297 298 297 295 293 291 290 292 293 294 294 293 293 292 293 293 294 294 295 295 295
319 317 317 314 314 314 314 313 312 310 309 307 301 299 299 298 298 297 299 300 297 295 293 292 292 293 294 294 294 293 293 293 294 294 295 295 296 296
317 316 315 313 313 313 314 314 314 314 312 310 306 301 300 300 300 300 299 299 298 297 296 294 294 294 294 294 294 295 295 294 294 294 295 296 296 297
317 317 316 313 313 312 313 312 313 313 312 311 308 305 302 302 301 301 300 299 298 297 296 297 297 296 295 296 295 294 294 294 294 294 294 296 297 297
315 315 315 313 313 312 310 310 310 310 310 309 308 306 304 302 303 302 301 299 298 298 297 297 296 295 295 295 295 295 295 295 294 294 295 296 297 297
313 312 311 311 311 310 309 309 308 307 306 305 305 304 303 302 301 301 300 300 299 298 297 296 296 296 295 295 294 295 295 295 296 295 295 296 297 297
310 310 310 309 308 308 307 306 306 306 304 303 303 302 301 300 300 299 300 300 300 299 297 296 295 296 295 295 294 295 296 296 297 296 295 296 297 297
308 308 308 307 305 305 305 304 304 304 304 303 301 301 300 300 300 300 299 299 299 299 298 296 296 295 296 295 294 294 296 296 298 297 296 296 296 296
307 306 306 306 305 305 304 304 303 303 303 303 303 302 302 302 301 301 300 300 300 299 298 297 296 296 295 295 295 294 295 297 297 298 297 297 296 296
306 304 304 304 304 304 303 303 303 304 303 304 304 305 304 303 303 302 301 300 300 300 298 298 298 296 295 294 295 296 296 296 297 298 298 297 297 296
305 302 301 302 304 304 303 302 302 303 303 303 303 304 304 303 302 302 302 302 301 300 299 298 297 296 294 294 294 296 297 296 296 296 297 297 296 296
305 304 302 302 304 304 303 303 303 303 303 302 302 304 303 302 301 301 301 301 303 302 300 299 297 295 294 293 294 296 297 297 296 296 297 297 296 296
302 303 302 301 303 304 304 303 302 302 302 301 301 301 302 303 302 302 301 300 300 301 300 298 297 297 295 294 295 295 295 296 295 295 296 296 297 296
301 300 300 299 300 301 301 302 301 300 300 300 299 300 301 301 301 301 300 300 299 300 301 300 298 297 297 296 296 296 296 296 296 296 296 296 296 296
299 297 297 297 298 298 300 301 301 300 300 300 300 300 300 299 299 300 300 300 299 299 299 299 298 298 298 297 296 295 296 297 297 297 298 298 297 296
296 295 295 296 296 295 297 300 300 300 300 301 301 301 300 299 299 298 299 300 300 300 299 298 298 297 297 297 297 295 296 297 297 297 297 297 298 298
293 294 294 294 294 294 295 297 298 298 299 300 301 301 300 299 298 298 300 301 301 301 299 298 297 296 297 297 296 296 295 296 296 296 295 294 296 298
292 293 293 292 293 294 294 296 296 297 298 299 299 299 299 300 299 299 299 300 301 300 299 298 297 297 297 296 296 296 296 294 295 296 295 294 295 296